User: anonymous   Login
Location: Oshawa
(43.9000°N, 78.8670°W)
Time: 09:12:11
(UTC-04:00)
Language:

Cosmos 2333 Rocket - Orbit

View from above orbital plane
View from above orbital plane
View from above satellite
View from above satellite

Ground track
Ground track

The orbit data is extracted from the following two-line orbital elements,

1 24298U 96051B   17086.85342842 +.00000014 +00000-0 +33985-4 0  9991
2 24298 070.8475 233.4950 0017784 293.8766 066.0491 14.12487139060071
Epoch (UTC): 27 March 2017 20:28:56
Eccentricity: 0.0017784
inclination: 70.8475°
perigee height: 838 km
apogee height: 864 km
right ascension of ascending node: 233.4950°
argument of perigee: 293.8766°
revolutions per day: 14.12487139
mean anomaly at epoch: 66.0491°
orbit number at epoch: 6007

The dashed part of the orbit path shows where the satellite is in the earth's shadow,  

DLR